Hourly Weather Bolshie Negnovichi

Today, 15 June, Tuesday

Time Temperature Precipitation Wind Pressure Humidity
00:00 +15°C° 0 mm 1 mps 746 mmHg 90%
01:00 +15°C° 0 mm 1 mps 746 mmHg 89%
02:00 +15°C° 0 mm 1 mps 746 mmHg 88%
03:00 +15°C° 0 mm 1 mps 746 mmHg 87%
04:00 +15°C° 0 mm 1 mps 746 mmHg 87%
05:00 +15°C° 0 mm 1 mps 746 mmHg 87%
06:00 +18°C° 0 mm 1 mps 746 mmHg 82%
07:00 +18°C° 0 mm 2 mps 746 mmHg 77%
08:00 +19°C° 0 mm 2 mps 746 mmHg 73%
09:00 +20°C° 0 mm 2 mps 746 mmHg 68%
10:00 +21°C° 0 mm 3 mps 746 mmHg 62%
11:00 +22°C° 0 mm 3 mps 746 mmHg 57%
12:00 +24°C° 0 mm 3 mps 746 mmHg 53%
13:00 +24°C° 0 mm 3 mps 745 mmHg 50%
14:00 +25°C° 0 mm 3 mps 745 mmHg 47%
15:00 +25°C° 0 mm 3 mps 745 mmHg 49%
16:00 +24°C° 0 mm 2 mps 745 mmHg 51%
17:00 +24°C° 0 mm 2 mps 744 mmHg 54%
18:00 +23°C° 0 mm 2 mps 744 mmHg 63%
19:00 +20°C° 0 mm 2 mps 744 mmHg 71%
20:00 +19°C° 0 mm 3 mps 744 mmHg 80%
21:00 +18°C° 0 mm 2 mps 744 mmHg 85%
22:00 +17°C° 0 mm 2 mps 744 mmHg 89%
23:00 +16°C° 0 mm 2 mps 745 mmHg 94%

Tomorrow, 16 June, Wednesday

Time Temperature Precipitation Wind Pressure Humidity
00:00 +16°C° 0 mm 2 mps 745 mmHg 94%
01:00 +16°C° 0 mm 2 mps 745 mmHg 95%
02:00 +15°C° 0 mm 2 mps 745 mmHg 96%
03:00 +15°C° 0 mm 2 mps 745 mmHg 94%
04:00 +15°C° 0 mm 2 mps 745 mmHg 92%
05:00 +14°C° 0 mm 2 mps 746 mmHg 89%
06:00 +14°C° 0 mm 3 mps 746 mmHg 83%
07:00 +17°C° 0 mm 3 mps 746 mmHg 76%
08:00 +18°C° 0 mm 3 mps 747 mmHg 69%
09:00 +19°C° 0 mm 3 mps 747 mmHg 65%
10:00 +20°C° 0 mm 3 mps 747 mmHg 60%
11:00 +21°C° 0 mm 3 mps 747 mmHg 56%
12:00 +22°C° 0 mm 3 mps 747 mmHg 53%
13:00 +22°C° 0 mm 3 mps 747 mmHg 50%
14:00 +24°C° 0 mm 3 mps 747 mmHg 47%
15:00 +22°C° 0 mm 3 mps 748 mmHg 49%
16:00 +22°C° 0 mm 3 mps 748 mmHg 51%
17:00 +22°C° 0 mm 3 mps 748 mmHg 53%
18:00 +20°C° 0 mm 2 mps 748 mmHg 60%
19:00 +18°C° 0 mm 2 mps 748 mmHg 67%
20:00 +17°C° 0 mm 2 mps 748 mmHg 74%
21:00 +15°C° 0 mm 2 mps 749 mmHg 75%
22:00 +14°C° 0 mm 2 mps 749 mmHg 76%
23:00 +13°C° 0 mm 2 mps 749 mmHg 77%

Day after tomorrow, 17 June, Thursday

Time Temperature Precipitation Wind Pressure Humidity
00:00 +13°C° 0 mm 2 mps 750 mmHg 79%
01:00 +12°C° 0 mm 2 mps 750 mmHg 80%
02:00 +12°C° 0 mm 2 mps 750 mmHg 82%
03:00 +12°C° 0 mm 2 mps 750 mmHg 81%
04:00 +12°C° 0 mm 2 mps 751 mmHg 80%
05:00 +12°C° 0 mm 2 mps 751 mmHg 80%
06:00 +15°C° 0 mm 2 mps 751 mmHg 73%
07:00 +17°C° 0 mm 2 mps 751 mmHg 67%
08:00 +19°C° 0 mm 2 mps 751 mmHg 60%
09:00 +20°C° 0 mm 2 mps 752 mmHg 56%
10:00 +23°C° 0 mm 2 mps 752 mmHg 51%
11:00 +24°C° 0 mm 2 mps 752 mmHg 47%
12:00 +25°C° 0 mm 2 mps 752 mmHg 45%
13:00 +26°C° 0 mm 2 mps 752 mmHg 44%
14:00 +26°C° 0 mm 2 mps 752 mmHg 42%
15:00 +26°C° 0 mm 2 mps 752 mmHg 45%
16:00 +26°C° 0 mm 2 mps 752 mmHg 49%
17:00 +26°C° 0 mm 2 mps 752 mmHg 52%
18:00 +24°C° 0 mm 2 mps 752 mmHg 61%
19:00 +21°C° 0 mm 2 mps 752 mmHg 70%
20:00 +19°C° 0 mm 2 mps 752 mmHg 79%
21:00 +18°C° 0 mm 2 mps 752 mmHg 81%
22:00 +17°C° 0 mm 2 mps 752 mmHg 84%
23:00 +16°C° 0 mm 2 mps 753 mmHg 86%

18 June, Friday

Time Temperature Precipitation Wind Pressure Humidity
00:00 +15°C° 0 mm 2 mps 753 mmHg 87%
01:00 +15°C° 0 mm 2 mps 753 mmHg 88%
02:00 +14°C° 0 mm 1 mps 753 mmHg 89%
03:00 +14°C° 0 mm 2 mps 753 mmHg 88%
04:00 +15°C° 0 mm 2 mps 753 mmHg 87%
05:00 +15°C° 0 mm 2 mps 753 mmHg 87%
06:00 +17°C° 0 mm 2 mps 753 mmHg 80%
07:00 +19°C° 0 mm 2 mps 753 mmHg 73%
08:00 +21°C° 0 mm 2 mps 753 mmHg 66%
09:00 +23°C° 0 mm 2 mps 753 mmHg 60%
10:00 +25°C° 0 mm 3 mps 753 mmHg 55%
11:00 +26°C° 0 mm 3 mps 753 mmHg 49%
12:00 +26°C° 0 mm 3 mps 753 mmHg 47%
13:00 +27°C° 0 mm 3 mps 753 mmHg 45%
14:00 +27°C° 0 mm 3 mps 753 mmHg 43%
15:00 +27°C° 0 mm 3 mps 753 mmHg 46%
16:00 +27°C° 0 mm 3 mps 753 mmHg 49%
17:00 +27°C° 0 mm 3 mps 752 mmHg 52%
18:00 +25°C° 0 mm 3 mps 752 mmHg 61%
19:00 +23°C° 0 mm 2 mps 752 mmHg 69%
20:00 +20°C° 0 mm 2 mps 752 mmHg 78%
21:00 +19°C° 0 mm 2 mps 752 mmHg 82%
22:00 +18°C° 0 mm 2 mps 753 mmHg 85%
23:00 +17°C° 0 mm 2 mps 753 mmHg 88%

19 June, Saturday

Time Temperature Precipitation Wind Pressure Humidity
00:00 +16°C° 0 mm 2 mps 753 mmHg 90%
01:00 +16°C° 0 mm 2 mps 753 mmHg 91%
02:00 +15°C° 0 mm 2 mps 753 mmHg 93%
03:00 +15°C° 0 mm 2 mps 753 mmHg 92%
04:00 +16°C° 0 mm 2 mps 753 mmHg 91%
05:00 +16°C° 0 mm 2 mps 753 mmHg 91%
06:00 +18°C° 0 mm 2 mps 753 mmHg 84%
07:00 +20°C° 0 mm 2 mps 753 mmHg 77%
08:00 +23°C° 0 mm 2 mps 753 mmHg 71%
09:00 +24°C° 0 mm 3 mps 753 mmHg 66%
10:00 +25°C° 0 mm 3 mps 753 mmHg 60%
11:00 +26°C° 0 mm 3 mps 753 mmHg 55%
12:00 +27°C° 0 mm 3 mps 753 mmHg 53%
13:00 +27°C° 0 mm 2 mps 752 mmHg 51%
14:00 +28°C° 0 mm 2 mps 752 mmHg 49%
15:00 +28°C° 0 mm 2 mps 752 mmHg 51%
16:00 +28°C° 0 mm 2 mps 752 mmHg 53%
17:00 +27°C° 0 mm 2 mps 752 mmHg 55%
18:00 +26°C° 0 mm 2 mps 752 mmHg 63%
19:00 +24°C° 0 mm 2 mps 752 mmHg 71%
20:00 +21°C° 0 mm 2 mps 752 mmHg 80%
21:00 +20°C° 0 mm 2 mps 752 mmHg 83%
22:00 +19°C° 0 mm 2 mps 752 mmHg 86%
23:00 +18°C° 0 mm 2 mps 752 mmHg 88%

20 June, Sunday

Time Temperature Precipitation Wind Pressure Humidity
00:00 +17°C° 0 mm 2 mps 752 mmHg 90%
01:00 +17°C° 0 mm 2 mps 752 mmHg 91%
02:00 +16°C° 0 mm 2 mps 752 mmHg 92%
03:00 +16°C° 0 mm 2 mps 752 mmHg 91%
04:00 +17°C° 0 mm 2 mps 752 mmHg 91%
05:00 +17°C° 0 mm 2 mps 752 mmHg 90%
06:00 +19°C° 0 mm 2 mps 752 mmHg 84%
07:00 +20°C° 0 mm 2 mps 752 mmHg 77%
08:00 +23°C° 0 mm 2 mps 752 mmHg 71%
09:00 +25°C° 0 mm 2 mps 752 mmHg 65%
10:00 +26°C° 0 mm 2 mps 752 mmHg 59%
11:00 +27°C° 0 mm 2 mps 751 mmHg 54%
12:00 +28°C° 0 mm 2 mps 751 mmHg 52%
13:00 +28°C° 0 mm 2 mps 751 mmHg 49%
14:00 +29°C° 0 mm 3 mps 751 mmHg 47%
15:00 +28°C° 0 mm 2 mps 750 mmHg 49%
16:00 +28°C° 0 mm 2 mps 750 mmHg 52%
17:00 +28°C° 0 mm 2 mps 750 mmHg 54%
18:00 +26°C° 0 mm 2 mps 750 mmHg 62%
19:00 +24°C° 0 mm 2 mps 750 mmHg 71%
20:00 +23°C° 0 mm 2 mps 750 mmHg 80%
21:00 +21°C° 0 mm 2 mps 750 mmHg 82%
22:00 +20°C° 0 mm 2 mps 750 mmHg 84%
23:00 +20°C° 0 mm 1 mps 750 mmHg 86%
Show more